Theta_e
319 319 319 319 320 320 321 322 323 324 322 322 321 321 321 321 322 322 322 322 322 323
320 319 318 320 321 321 322 324 323 324 324 323 322 322 321 322 322 323 321 323 323 324
321 321 320 321 321 321 322 322 322 323 324 323 322 322 322 321 321 321 321 322 321 322
322 322 321 322 322 322 322 323 322 323 323 322 321 322 322 323 323 321 320 320 321 320
321 321 320 322 322 323 323 324 323 323 322 322 322 323 323 323 323 322 320 321 321 321
320 320 319 321 323 323 323 323 323 323 323 323 322 322 323 322 321 320 321 321 321 321
320 320 320 320 321 323 324 324 324 324 325 325 323 322 322 321 320 321 321 321 322 322
320 321 321 321 322 323 325 326 326 325 325 326 324 322 322 322 321 321 322 322 322 322
320 321 322 322 321 320 323 325 326 325 325 325 323 305 311 318 322 322 322 321 321 320
320 321 322 322 318 319 318 321 323 323 324 322 318 304 305 312 323 322 323 322 322 322
320 320 321 320 318 316 315 317 319 321 321 320 314 302 303 308 324 323 324 324 323 322
319 319 319 319 316 314 314 314 316 318 320 316 312 300 302 316 323 323 323 323 323 322
318 319 319 318 314 314 314 314 315 314 316 311 314 299 302 316 323 322 322 322 321 310
318 319 319 317 316 314 314 313 313 312 312 315 316 309 301 306 323 323 322 321 320 321
Wind_Speed
3 2 0 2 1 1 1 1 1 3 4 5 5 5 4 3 3 3 3 6 4 3
2 2 1 2 1 0 1 1 2 4 4 5 6 6 5 4 4 4 3 5 6 5
3 2 1 2 3 3 2 2 3 3 4 4 5 5 5 4 5 6 3 4 6 5
2 2 3 3 2 3 3 4 3 4 5 6 5 6 7 7 7 8 7 5 6 6
4 3 3 3 3 3 3 3 4 5 7 7 6 7 8 7 5 7 7 7 8 8
4 4 2 4 3 3 4 4 4 6 7 7 7 8 7 6 7 6 5 7 7 6
5 4 3 4 3 4 4 4 5 6 7 8 8 8 8 8 9 8 7 6 6 6
5 4 4 4 4 4 4 4 5 8 6 7 8 7 8 8 8 8 8 7 7 6
5 5 4 4 3 4 4 5 6 7 9 6 5 11 11 11 8 8 8 8 8 9
5 5 4 4 5 5 4 4 6 5 5 6 6 12 12 11 8 7 8 9 8 8
5 6 5 4 5 5 3 4 4 6 5 5 4 9 12 11 10 8 8 8 8 7
7 6 7 6 5 3 5 3 3 3 6 7 4 7 10 10 9 9 8 7 7 5
7 8 8 8 6 3 3 4 5 5 3 7 6 6 9 9 7 9 6 5 5 6
7 8 7 7 4 5 5 5 5 6 4 5 5 6 8 11 7 8 6 6 4 3
Wind_Direction
169 108 307 300 358 48 52 40 251 158 155 149 136 140 145 136 137 138 127 107 119 131
140 111 2 12 50 38 25 92 151 160 140 132 131 146 149 138 126 133 122 118 107 110
172 121 154 78 60 41 21 72 102 124 114 113 121 131 122 111 122 117 108 105 118 109
132 98 105 97 68 50 43 54 76 105 114 117 120 117 114 123 121 119 115 106 120 118
117 101 101 118 85 52 68 87 113 121 121 124 123 118 126 127 121 132 133 116 121 129
123 115 117 105 95 87 57 81 92 101 110 115 120 125 127 123 118 118 111 117 126 127
146 140 145 113 107 107 91 93 89 101 115 119 117 123 127 122 126 118 109 103 109 123
148 141 149 115 106 94 89 82 97 111 104 116 120 126 119 114 109 111 114 115 114 121
149 141 158 133 114 106 86 86 93 110 118 111 107 125 121 128 117 112 116 113 111 112
158 144 151 135 110 100 89 101 100 99 115 117 123 125 118 109 116 114 113 112 119 108
163 145 146 128 113 109 97 98 94 101 97 103 106 128 122 119 118 111 111 107 108 114
162 152 149 148 144 116 115 106 98 100 104 105 115 141 128 114 113 118 117 120 120 121
164 159 161 155 155 126 120 115 114 101 96 110 129 129 141 131 127 122 133 118 115 119
165 165 159 150 146 134 127 113 106 105 95 120 138 146 139 149 152 149 151 151 155 150